Weather in Abyy

Russia / Sakha (Yakutia) Republic     68°23′32″N   145°04′33″E
temp.,
°C
wind,
m/s
gust,
m/s
humid.,
%
clouds,
%
prec.,
mm/h
press.,
hPa
HPBL,
m
26 october, tue
tue2623:00−22ne1110067 0.0 10079
02:00−19ene1197100 0.0 100747
05:00−19ene119972 0.1 100816
08:00−20ene229988 0.1 100922
11:00−18ese129586 0.1 101078
14:00−17se119530 0.0 101056
17:00−20ese1210076 0.1 10109
20:00−22ese2210079 0.0 101110
27 october, wed
wed2723:00−22se2210092 0.1 101215
02:00−22se2210069 0.0 101225
05:00−21se349895 0.0 101355
08:00−21se359778 0.0 101355
11:00−19se369480 0.0 1014120
14:00−17se379295 0.0 1013162
17:00−19se349417 0.0 101350
20:00−20se359672 0.0 101358
28 october, thu
thu2823:00−20ese359666 0.0 101370
02:00−19ese3695100 0.0 1012109
05:00−17ese3692100 0.0 1012125
08:00−17se3792100 0.0 1011150
11:00−17se369332 0.0 1010120
14:00−15se379171 0.0 1009192
17:00−19ese33955 0.0 100829
20:00−21e2298100 0.0 100814
29 october, fri
fri2923:00−18ese2294100 0.0 100741
02:00−17e2293100 0.0 100641
05:00−16ene2296100 0.2 100671
08:00−15e2296100 0.4 100783
11:00−15e1196100 0.8 100867
14:00−14nne1194100 0.4 1009133
17:00−15n1197100 0.8 10119
20:00−15nnw1197100 0.3 101323
30 october, sat
sat3023:00−15nnw2197100 0.4 101426
02:00−15n2296100 0.1 101545
05:00−15nnw2297100 0.2 101628
08:00−15nnw2297100 0.2 101855
11:00−14nnw2496100 0.4 1019164
14:00−13nnw3793100 0.1 1020378
17:00−14nnw3695100 0.2 1022159
20:00−16nnw359388 0.1 102397